Weather History for Toronto, ON

Change the Weather History Date:

Tuesday, September 25, 2012

  Actual Average Record
Temperature  
Mean Temperature 54 °F -  
Max Temperature 61 °F 58 °F 80 °F (2007)
Min Temperature 48 °F 46 °F 42 °F (2000)
Degree Days  
Heating Degree Days 10    
Growing Degree Days 4 (Base 50)    
Moisture  
Dew Point 47 °F    
Average Humidity 73    
Maximum Humidity 82    
Minimum Humidity 57    
Precipitation  
Precipitation 0.00 in 0.08 in - ()
Sea Level Pressure  
Sea Level Pressure 29.92 in    
Wind  
Wind Speed 7 mph ()    
Max Wind Speed 16 mph    
Max Gust Speed 20 mph    
Visibility 9.0 miles    
Events      
Averages and records for this station are not official NWS values.
T = Trace of Precipitation, MM = Missing Value Source: Averaged Metar Reports

Daily Weather History Graph

Daily Weather History Graph

Search for Another Location

Airport:

Trip Planner

Search our weather history database for the weather conditions in past years. The results will help you decide how hot, cold, wet, or windy it might be!

Date:

Astronomy

Sep. 25, 2012 Rise Set
Actual Time 7:08 AM EDT 7:08 PM EDT
Civil Twilight 6:40 AM EDT 7:37 PM EDT
Nautical Twilight 6:06 AM EDT 8:10 PM EDT
Astronomical Twilight 5:32 AM EDT 8:44 PM EDT
Moon 4:38 PM EDT (9/25) 2:20 AM EDT (9/25)
Length of Visible Light 12h 56m
Length of Day
11h 59m
Waxing Gibbous, 80% of the Moon is Illuminated
Sep 25
Waxing Gibbous
Sep 29
Full
Oct 8
Last Quarter
Oct 15
New
Oct 21
First Quarter

Hourly Weather History & Observations

Time (EDT) Temp. Dew Point Humidity Pressure Visibility Wind Dir Wind Speed Gust Speed Precip Events Conditions
12:00 AM 50.0 °F 42.8 °F 76% 29.93 in 9.0 mi West 4.6 mph - N/A   Clear
1:00 AM 50.0 °F 44.6 °F 82% 29.92 in 9.0 mi WSW 8.1 mph - N/A   Clear
2:00 AM 49 °F 44 °F 76% 29.92 in 10 mi West 6.9 mph - -  
2:00 AM 48.2 °F 42.8 °F 82% 29.91 in 9.0 mi West 6.9 mph - N/A   Clear
2:21 AM 50.0 °F 44.6 °F 82% 29.91 in 9.0 mi SW 12.7 mph - N/A   Clear
3:00 AM 53.6 °F 44.6 °F 72% 29.90 in 9.0 mi SW 15.0 mph - N/A   Overcast
4:00 AM 53.6 °F 44.6 °F 72% 29.91 in 9.0 mi WSW 9.2 mph - N/A   Overcast
5:00 AM 51.8 °F 44.6 °F 76% 29.91 in 9.0 mi West 5.8 mph - N/A   Overcast
6:00 AM 51.8 °F 44.6 °F 76% 29.92 in 9.0 mi WSW 9.2 mph - N/A   Overcast
7:00 AM 51.8 °F 44.6 °F 76% 29.93 in 9.0 mi West 5.8 mph - N/A   Clear
8:00 AM 52 °F 46 °F 73% 29.94 in 10 mi WSW 4.6 mph - -  
8:00 AM 51.8 °F 46.4 °F 82% 29.94 in 9.0 mi WSW 4.6 mph - N/A   Clear
9:00 AM 55.4 °F 46.4 °F 72% 29.94 in 9.0 mi SW 6.9 mph - N/A   Clear
10:00 AM 55.4 °F 48.2 °F 77% 29.94 in 9.0 mi SSW 11.5 mph - N/A   Clear
11:00 AM 57.2 °F 50.0 °F 77% 29.95 in 9.0 mi SSW 13.8 mph - N/A   Clear
12:00 PM 59.0 °F 50.0 °F 72% 29.96 in 9.0 mi South 11.5 mph - N/A   Clear
1:00 PM 60.8 °F 51.8 °F 72% 29.94 in 9.0 mi South 13.8 mph - N/A   Clear
2:00 PM 62 °F 51 °F 57% 29.93 in 10 mi South 15.0 mph - -  
2:00 PM 60.8 °F 50.0 °F 68% 29.93 in 9.0 mi South 16.1 mph - N/A   Clear
3:00 PM 60.8 °F 50.0 °F 68% 29.92 in 9.0 mi South 11.5 mph 19.6 mph N/A   Clear
4:00 PM 59.0 °F 48.2 °F 67% 29.91 in 9.0 mi South 11.5 mph - N/A   Mostly Cloudy
5:00 PM 60.8 °F 48.2 °F 63% 29.91 in 9.0 mi SSW 11.5 mph - N/A   Mostly Cloudy
6:00 PM 57.2 °F 48.2 °F 72% 29.91 in 9.0 mi SSW 9.2 mph - N/A   Mostly Cloudy
7:00 PM 55.4 °F 46.4 °F 72% 29.92 in 9.0 mi SSW 4.6 mph - N/A   Overcast
8:00 PM 56 °F 48 °F 66% 29.92 in 7 mi South 1.2 mph - -   Overcast
8:00 PM 57.2 °F 48.2 °F 72% 29.92 in 7.0 mi Calm Calm - N/A   Overcast
9:00 PM 57.2 °F 48.2 °F 72% 29.92 in 9.0 mi Variable 2.3 mph - N/A   Overcast
10:00 PM 57.2 °F 50.0 °F 77% 29.91 in 9.0 mi SW 4.6 mph - N/A   Overcast